Temp
83 85 78 78 78 78 78 78 78 78 77 77 77 77 77 77 77 77 77 77 77 77 78 78 79 79 79 78 77 77 76 76 75 75 75 75 76 77 77 77 78 81 78
85 86 77 78 78 78 78 77 77 77 77 77 77 77 77 77 76 77 77 77 77 77 78 78 79 78 79 77 77 76 75 75 74 74 73 73 74 76 76 76 76 79 77
84 86 83 78 78 77 77 76 77 77 77 77 77 77 77 77 77 77 77 77 77 77 78 78 78 78 77 76 76 75 75 74 73 73 74 83 80 76 76 76 76 76 77
84 86 85 77 77 77 77 76 77 77 77 77 77 77 77 77 77 77 77 77 77 77 77 77 77 77 77 76 75 74 74 73 73 74 83 83 82 77 77 77 77 77 76
83 85 85 76 76 77 76 76 76 76 76 76 76 77 76 77 77 77 76 76 76 76 76 76 76 76 75 75 74 74 73 72 73 78 81 81 81 78 77 77 77 76 76
83 86 79 76 76 76 76 76 76 76 77 76 76 76 76 76 77 76 75 74 75 75 75 75 75 75 74 74 73 73 72 72 74 82 81 80 80 76 76 76 76 76 76
84 85 82 75 76 75 75 76 76 77 76 76 76 76 77 77 76 75 74 74 74 75 75 75 74 74 73 73 73 72 71 71 81 81 81 81 79 77 77 76 76 75 75
84 84 83 74 74 75 75 75 76 75 75 75 76 76 75 75 75 74 73 74 74 75 75 74 74 73 73 72 72 71 70 72 79 80 81 78 75 76 76 75 76 75 75
84 83 82 78 75 73 74 74 75 74 74 75 75 74 73 73 73 73 73 73 74 75 74 73 73 73 72 72 71 70 69 70 81 80 81 80 74 76 76 75 75 74 75
82 82 77 78 76 76 76 72 72 73 73 73 73 72 70 70 71 72 71 72 73 74 73 73 72 72 71 70 69 68 68 70 81 79 76 78 75 76 75 75 74 75 74
76 79 77 77 76 76 80 76 71 71 71 71 70 68 69 77 75 73 71 70 72 72 72 72 72 71 69 67 67 68 70 79 78 73 70 73 75 75 75 75 74 74 74
75 75 77 76 77 76 79 77 75 76 74 73 73 75 78 78 77 76 70 68 71 71 71 72 70 68 71 77 75 70 80 78 74 74 76 73 75 75 75 74 74 74 73
76 74 75 76 77 74 75 77 74 74 72 71 75 76 76 76 74 75 73 74 74 70 75 73 71 75 76 77 77 79 80 79 77 77 74 72 74 75 74 74 72 71 72
70 69 70 74 75 73 73 74 73 77 72 71 74 75 74 73 74 75 75 74 74 76 74 73 74 75 75 76 77 78 78 76 71 75 71 67 72 73 74 72 72 72 72
69 65 68 70 72 75 70 74 74 77 76 76 74 74 74 72 72 73 73 73 73 74 73 72 73 72 73 74 75 75 75 76 72 71 74 64 70 73 73 73 73 73 72
70 70 65 67 66 69 73 76 76 77 76 75 74 73 73 73 72 71 71 71 71 72 72 72 71 71 71 72 72 74 74 73 74 71 68 71 65 70 71 73 73 72 72
71 71 68 66 63 62 67 74 76 75 75 73 73 73 72 71 71 70 71 69 70 71 71 71 70 70 69 70 70 71 73 74 74 71 65 66 64 64 70 72 72 72 71
71 70 70 68 65 63 62 65 74 75 74 74 73 72 71 71 71 69 68 69 70 69 69 68 67 68 68 68 67 68 69 70 72 72 65 63 60 62 68 70 70 71 71
70 71 70 70 67 62 62 63 71 73 73 74 73 72 71 71 70 70 70 68 68 68 68 68 67 66 64 64 65 66 67 68 68 70 66 62 61 62 66 65 66 67 69
69 70 71 70 69 68 65 65 68 69 71 73 72 72 71 71 70 70 70 69 68 67 67 67 65 65 65 64 64 63 64 65 66 67 67 64 62 61 66 69 71 69 66
68 68 70 68 68 67 66 62 62 62 68 70 71 72 70 71 70 70 69 68 68 67 67 67 65 63 62 64 61 60 61 63 62 64 66 66 62 61 63 70 71 70 68
68 68 69 68 68 68 65 64 67 67 69 69 69 69 70 70 68 68 68 66 67 68 66 66 64 62 62 64 62 60 55 58 61 63 64 65 63 63 61 65 69 69 69
69 67 68 67 66 69 67 66 65 69 67 65 65 66 68 68 67 67 67 68 67 67 64 64 63 62 59 62 65 64 57 56 57 61 61 63 64 64 64 63 65 66 67
70 69 69 69 64 65 66 64 61 62 59 63 64 66 65 67 67 67 67 67 67 67 65 65 65 64 64 59 63 63 62 64 59 53 59 60 63 63 62 62 63 63 64
70 65 61 61 62 62 64 62 60 63 65 67 64 64 65 66 68 67 66 66 66 66 66 65 65 65 66 64 62 61 61 63 65 60 53 53 58 61 61 62 62 62 62
68 62 60 59 58 60 61 61 60 60 65 64 64 65 65 65 66 66 66 65 66 65 66 66 66 66 66 66 65 63 62 61 59 60 58 56 55 56 59 60 60 60 60
MSLP
1011.99 1012.21 1013.21 1013.54 1014.09 1014.29 1014.60 1014.92 1015.20 1015.49 1015.80 1016.08 1016.29 1016.51 1016.74 1016.88 1017.00 1017.06 1017.15 1017.27 1017.41 1017.44 1017.44 1017.48 1017.43 1017.53 1017.70 1017.85 1018.10 1018.29 1018.51 1018.60 1018.73 1018.85 1018.84 1018.93 1018.79 1018.80 1018.62 1018.37 1018.15 1017.96 1018.31
1011.77 1012.07 1013.23 1013.62 1014.07 1014.43 1014.79 1015.13 1015.48 1015.81 1016.02 1016.23 1016.44 1016.67 1016.93 1017.10 1017.20 1017.33 1017.36 1017.47 1017.64 1017.77 1017.80 1017.78 1017.80 1017.87 1017.95 1018.32 1018.61 1018.90 1019.10 1019.27 1019.27 1019.29 1019.14 1019.25 1019.28 1019.26 1019.09 1018.92 1018.78 1018.70 1018.67
1011.82 1012.15 1013.10 1013.72 1014.17 1014.55 1014.92 1015.46 1015.69 1015.96 1016.26 1016.43 1016.63 1016.88 1017.04 1017.25 1017.39 1017.54 1017.66 1017.79 1017.91 1018.05 1018.06 1018.03 1018.11 1018.21 1018.45 1018.85 1019.15 1019.41 1019.57 1019.68 1019.72 1019.51 1019.12 1018.82 1019.28 1019.47 1019.41 1019.28 1019.24 1019.24 1019.04
1011.77 1012.14 1012.82 1013.76 1014.23 1014.71 1015.03 1015.68 1015.92 1016.15 1016.40 1016.64 1016.78 1017.02 1017.22 1017.40 1017.55 1017.73 1017.90 1018.10 1018.18 1018.28 1018.35 1018.44 1018.59 1018.66 1018.86 1019.25 1019.54 1019.80 1019.89 1019.98 1019.99 1019.56 1018.77 1018.95 1019.34 1019.75 1019.70 1019.64 1019.61 1019.55 1019.55
1011.92 1012.21 1012.60 1013.75 1014.29 1014.71 1015.30 1015.85 1016.13 1016.35 1016.55 1016.80 1017.00 1017.16 1017.43 1017.60 1017.74 1017.87 1018.16 1018.39 1018.54 1018.56 1018.63 1018.91 1019.00 1019.10 1019.34 1019.63 1019.91 1019.96 1020.14 1020.24 1020.01 1019.49 1019.43 1019.49 1019.66 1020.18 1020.07 1019.96 1019.95 1020.01 1020.01
1011.96 1012.21 1012.89 1013.75 1014.28 1014.73 1015.34 1015.97 1016.24 1016.50 1016.66 1016.91 1017.18 1017.37 1017.58 1017.82 1017.98 1018.23 1018.53 1018.79 1018.86 1018.91 1019.01 1019.12 1019.35 1019.44 1019.71 1020.00 1020.27 1020.36 1020.43 1020.33 1019.98 1019.62 1019.81 1019.96 1019.94 1020.36 1020.39 1020.47 1020.46 1020.45 1020.49
1011.89 1012.26 1012.96 1013.87 1014.24 1014.68 1015.41 1016.08 1016.34 1016.55 1016.90 1017.19 1017.38 1017.62 1017.70 1017.95 1018.31 1018.60 1018.95 1019.11 1019.18 1019.26 1019.32 1019.34 1019.55 1019.85 1020.20 1020.40 1020.55 1020.68 1020.70 1020.42 1019.84 1019.90 1019.86 1020.10 1020.45 1020.53 1020.61 1020.73 1020.81 1020.91 1020.97
1011.87 1012.31 1012.84 1013.84 1014.32 1014.69 1015.19 1016.13 1016.44 1016.77 1017.10 1017.39 1017.58 1017.71 1018.00 1018.37 1018.67 1018.99 1019.26 1019.40 1019.43 1019.56 1019.61 1019.80 1019.98 1020.24 1020.50 1020.68 1020.79 1020.93 1020.92 1020.54 1020.16 1020.29 1020.26 1020.73 1021.02 1020.92 1021.04 1021.21 1021.16 1021.23 1021.36
1011.85 1012.35 1012.83 1013.78 1014.44 1014.80 1015.24 1016.08 1016.56 1016.94 1017.21 1017.49 1017.68 1018.00 1018.36 1018.67 1018.98 1019.23 1019.41 1019.58 1019.66 1019.71 1019.93 1020.20 1020.36 1020.62 1020.82 1021.07 1021.17 1021.26 1021.24 1020.90 1020.43 1020.59 1020.67 1020.95 1021.41 1021.36 1021.36 1021.46 1021.61 1021.64 1021.68
1012.07 1012.41 1013.01 1013.61 1014.35 1014.91 1015.44 1016.07 1016.67 1017.21 1017.48 1017.67 1017.91 1018.31 1018.70 1019.11 1019.32 1019.49 1019.73 1019.79 1019.89 1020.04 1020.23 1020.52 1020.74 1020.90 1021.16 1021.40 1021.59 1021.72 1021.51 1021.10 1020.74 1020.95 1021.25 1021.55 1021.81 1021.84 1021.87 1021.87 1021.88 1021.95 1022.18
1012.46 1012.67 1013.10 1013.56 1014.28 1014.70 1015.11 1016.11 1016.71 1017.21 1017.75 1017.99 1018.25 1018.66 1019.06 1019.02 1019.41 1019.70 1019.69 1020.09 1020.19 1020.37 1020.59 1020.82 1021.10 1021.37 1021.57 1021.79 1021.92 1021.84 1021.39 1021.31 1021.60 1021.90 1022.06 1021.98 1022.09 1022.27 1022.32 1022.38 1022.43 1022.42 1022.50
1012.53 1012.85 1013.14 1013.59 1014.32 1014.63 1015.00 1016.10 1016.85 1017.09 1017.58 1018.15 1018.41 1018.69 1018.64 1018.76 1019.14 1019.35 1020.01 1020.31 1020.44 1020.60 1020.79 1021.11 1021.55 1021.76 1021.47 1021.47 1021.93 1021.79 1021.31 1021.68 1022.21 1022.03 1022.13 1022.28 1022.37 1022.60 1022.74 1022.90 1022.97 1023.07 1023.05
1012.21 1012.97 1013.25 1013.54 1014.11 1014.51 1015.02 1015.84 1016.74 1017.38 1017.82 1018.20 1018.45 1018.49 1018.77 1019.07 1019.50 1019.62 1020.07 1020.31 1020.51 1020.74 1020.83 1021.35 1021.85 1021.50 1021.55 1021.63 1021.71 1021.63 1021.42 1021.85 1022.40 1022.26 1022.60 1022.55 1022.57 1022.82 1023.11 1023.32 1023.54 1023.73 1023.79
1012.61 1013.26 1013.54 1013.51 1013.98 1014.56 1015.11 1015.63 1016.73 1016.87 1017.86 1018.18 1018.39 1018.82 1019.04 1019.25 1019.31 1019.30 1019.57 1019.97 1020.26 1020.31 1020.75 1021.33 1021.47 1021.62 1021.87 1022.03 1021.98 1022.00 1022.08 1022.52 1023.11 1022.89 1023.11 1023.07 1022.99 1023.16 1023.31 1023.69 1023.91 1024.05 1024.29
1012.67 1013.19 1013.47 1013.77 1014.04 1014.35 1014.73 1015.31 1016.20 1016.64 1017.27 1017.56 1018.11 1018.75 1019.09 1019.35 1019.52 1019.58 1019.73 1020.02 1020.28 1020.54 1020.93 1021.32 1021.65 1021.97 1022.20 1022.37 1022.43 1022.47 1022.60 1022.84 1023.25 1023.41 1023.56 1023.58 1023.40 1023.40 1023.71 1023.95 1024.10 1024.55 1024.82
1012.37 1012.69 1013.30 1013.76 1014.29 1014.39 1014.63 1014.68 1015.31 1016.01 1017.02 1017.37 1017.74 1018.33 1019.07 1019.29 1019.51 1019.86 1020.05 1020.20 1020.55 1020.79 1021.12 1021.46 1021.79 1022.18 1022.49 1022.67 1022.89 1023.03 1023.17 1023.37 1023.49 1023.89 1024.13 1024.03 1023.97 1023.78 1024.16 1024.14 1024.43 1024.80 1025.22
1011.79 1012.28 1012.89 1013.67 1014.30 1014.79 1014.90 1014.80 1015.08 1015.47 1016.44 1017.34 1017.49 1017.99 1018.80 1019.33 1019.61 1019.86 1020.03 1020.51 1020.73 1021.00 1021.32 1021.70 1022.11 1022.52 1022.85 1023.16 1023.32 1023.51 1023.51 1023.54 1023.62 1024.22 1024.74 1024.68 1024.67 1024.55 1024.32 1024.62 1024.89 1025.08 1025.49
1011.36 1011.72 1012.52 1013.21 1013.87 1014.46 1014.75 1015.69 1015.32 1015.36 1015.69 1016.97 1017.21 1017.78 1018.44 1019.11 1019.57 1019.98 1020.10 1020.40 1020.94 1021.20 1021.50 1021.89 1022.22 1022.63 1023.07 1023.45 1023.72 1024.12 1024.27 1024.27 1024.09 1024.41 1025.06 1025.28 1025.25 1025.08 1024.98 1024.97 1025.35 1025.54 1025.75
1010.49 1010.77 1011.47 1012.51 1013.11 1013.57 1013.53 1014.78 1015.39 1015.12 1015.29 1016.09 1017.03 1017.45 1018.04 1018.67 1019.30 1019.72 1019.98 1020.29 1020.87 1021.30 1021.55 1021.89 1022.36 1022.89 1023.31 1023.85 1024.18 1024.55 1024.66 1024.82 1024.89 1024.98 1025.41 1025.86 1025.89 1025.76 1025.58 1025.66 1025.97 1026.05 1026.18
1009.74 1010.25 1010.62 1011.52 1012.23 1012.91 1013.66 1014.52 1014.64 1014.65 1015.20 1015.46 1016.41 1017.11 1017.53 1018.20 1018.91 1019.35 1019.78 1020.18 1020.53 1021.15 1021.63 1021.97 1022.37 1023.04 1023.45 1023.82 1024.47 1025.01 1025.33 1025.43 1025.48 1025.61 1025.76 1026.30 1026.54 1026.60 1026.19 1026.06 1026.38 1026.79 1026.69
1008.92 1009.45 1009.71 1010.36 1011.13 1012.12 1012.59 1013.28 1014.07 1014.29 1014.81 1015.12 1015.41 1016.53 1017.28 1017.79 1018.52 1019.00 1019.44 1019.99 1020.38 1020.67 1021.31 1021.88 1022.49 1022.91 1023.69 1024.07 1024.48 1025.26 1025.79 1026.04 1026.09 1026.07 1026.16 1026.15 1026.72 1026.99 1026.89 1026.50 1026.58 1026.98 1027.41
1007.95 1008.51 1009.00 1009.24 1010.10 1010.92 1011.91 1012.47 1013.46 1013.38 1013.71 1014.65 1015.36 1016.04 1017.04 1017.60 1018.25 1018.65 1019.12 1019.73 1020.17 1020.48 1021.08 1021.75 1022.47 1023.06 1023.69 1023.90 1023.78 1024.49 1025.11 1026.01 1026.24 1026.42 1026.50 1026.39 1026.63 1026.91 1027.25 1027.19 1027.26 1027.35 1027.56
1006.91 1007.63 1008.16 1008.91 1009.55 1009.80 1010.96 1012.04 1012.95 1013.30 1013.65 1014.63 1015.44 1015.67 1016.39 1017.18 1017.81 1018.41 1018.87 1019.30 1019.89 1020.41 1020.66 1021.63 1022.03 1022.62 1023.29 1023.79 1023.81 1023.65 1024.31 1024.10 1025.56 1026.58 1026.73 1026.77 1026.86 1026.85 1027.12 1027.59 1027.69 1027.88 1028.10
1006.21 1007.00 1007.60 1008.11 1008.68 1008.99 1009.81 1011.10 1011.91 1012.57 1012.58 1013.54 1014.15 1014.95 1015.88 1016.63 1017.27 1018.07 1018.64 1019.05 1019.62 1020.07 1020.43 1021.11 1021.58 1021.95 1022.52 1023.12 1023.47 1023.98 1023.95 1023.48 1024.06 1025.71 1026.69 1026.93 1027.21 1027.23 1027.23 1027.52 1027.93 1028.26 1028.37
1006.18 1007.03 1007.65 1007.70 1007.48 1007.83 1008.75 1010.03 1011.14 1011.97 1012.43 1012.80 1013.84 1014.76 1015.58 1016.27 1016.83 1017.53 1018.18 1018.72 1019.16 1019.67 1020.05 1020.69 1021.28 1021.57 1021.99 1022.38 1022.97 1023.20 1023.68 1023.84 1023.82 1024.18 1025.30 1026.51 1027.11 1027.47 1027.57 1027.64 1027.75 1028.29 1028.70
1006.34 1007.26 1007.63 1007.85 1008.07 1008.50 1009.07 1010.07 1011.03 1011.34 1011.52 1012.28 1013.25 1014.16 1015.00 1015.62 1016.30 1016.92 1017.54 1018.17 1018.66 1019.22 1019.64 1020.24 1020.78 1021.27 1021.49 1022.02 1022.59 1022.90 1022.90 1023.06 1023.63 1024.10 1024.63 1025.62 1025.95 1027.04 1027.59 1027.99 1028.05 1028.19 1028.67
Wind_Speed
9 16 16 18 17 17 16 16 15 15 14 14 13 13 12 13 13 13 12 12 11 11 12 12 13 14 14 14 16 16 15 15 15 15 15 15 16 16 16 16 15 16 17
13 17 17 17 17 17 18 16 16 15 15 14 14 13 12 12 12 12 13 13 12 12 13 13 14 14 14 16 16 14 14 13 13 12 14 12 13 14 15 16 15 16 17
13 16 17 16 16 18 18 16 16 15 15 15 15 14 14 13 13 13 13 13 13 12 13 14 14 14 17 16 15 14 14 13 11 6 4 10 13 14 15 15 14 16 18
14 16 18 16 18 19 18 16 16 16 15 15 15 15 14 14 14 14 13 13 13 14 14 14 14 14 15 16 15 14 14 13 7 4 7 11 12 14 15 14 14 14 16
15 16 16 16 19 19 18 16 16 16 16 15 15 15 14 14 14 15 14 13 13 14 15 14 14 15 17 16 14 14 14 12 4 7 9 9 10 12 14 14 15 16 14
16 16 15 14 19 19 18 15 16 16 16 15 14 15 15 14 14 15 14 13 12 13 15 16 14 14 17 15 13 14 13 9 6 10 10 10 12 14 15 15 14 15 14
17 15 15 20 20 20 19 15 15 15 15 15 16 15 15 15 14 15 14 14 14 14 15 17 16 15 15 14 13 13 11 1 10 9 9 10 11 14 16 14 15 14 14
16 16 15 17 19 20 19 14 14 13 15 15 15 15 15 15 15 14 14 14 14 15 16 16 16 16 14 14 14 12 9 5 8 9 10 11 9 12 14 13 15 14 15
15 15 14 16 17 18 18 14 12 13 14 14 15 15 15 14 15 15 14 14 15 15 16 15 15 15 14 14 13 12 7 5 9 8 10 8 9 15 16 14 13 14 17
14 15 12 16 15 15 14 13 12 11 12 11 13 13 12 12 12 13 11 12 13 13 15 15 15 15 15 15 12 10 6 6 11 9 8 9 12 12 14 14 14 16 18
10 13 14 14 14 14 14 12 13 13 11 9 11 13 12 10 12 13 9 9 12 14 15 16 16 16 15 12 10 6 4 8 8 7 4 10 12 14 14 15 14 14 16
14 13 13 14 14 14 10 14 11 12 8 7 8 13 10 11 10 9 10 9 13 13 15 15 15 13 10 9 7 5 6 9 6 4 6 10 13 14 15 16 15 16 17
14 9 13 14 14 12 9 10 5 6 4 5 12 11 8 7 8 8 8 8 10 10 9 10 10 6 8 7 6 6 8 8 5 4 7 7 13 15 15 15 15 19 20
11 7 8 13 15 13 8 8 9 8 7 6 9 11 8 6 8 8 8 9 9 7 10 8 6 8 8 8 8 9 10 8 5 5 9 10 15 18 17 18 20 20 20
11 7 8 9 13 14 13 11 11 9 9 11 10 10 8 8 8 8 8 9 8 8 9 8 8 8 8 8 7 8 9 10 8 4 5 15 8 14 18 19 21 19 17
13 13 9 9 5 9 13 15 13 11 11 10 10 10 11 8 8 8 8 8 8 8 8 8 8 8 7 8 8 8 7 7 8 9 6 7 15 13 18 19 19 19 16
15 14 16 14 9 5 6 11 11 11 11 10 10 12 11 9 9 9 8 7 7 7 10 8 8 7 7 7 8 6 6 7 7 10 7 6 7 11 16 19 18 19 17
17 17 16 12 12 12 7 7 9 11 11 10 10 10 13 12 11 10 8 8 8 8 8 8 8 8 8 7 7 5 5 5 6 8 7 6 4 4 10 16 16 18 17
19 20 20 20 18 13 10 9 13 13 11 11 10 10 13 13 12 10 8 8 10 8 8 8 8 8 8 7 7 6 5 5 5 4 8 7 7 6 5 13 12 13 14
19 20 20 16 20 20 15 14 10 9 11 11 11 10 14 11 14 11 9 10 10 9 9 9 10 8 8 9 8 7 6 5 5 5 6 6 6 7 4 9 9 9 10
17 20 21 18 17 14 13 12 10 10 12 11 12 15 14 12 14 12 9 10 10 11 11 12 10 13 8 10 8 8 6 6 6 5 4 5 6 6 4 6 7 7 8
18 20 20 18 19 17 13 11 12 12 12 12 10 13 13 14 14 12 12 11 12 10 12 12 12 9 8 10 6 6 6 4 4 4 3 4 6 6 6 5 6 7 6
18 20 20 19 16 18 19 12 10 11 10 10 11 12 13 15 14 13 13 12 12 10 11 13 13 12 8 9 11 2 4 5 8 3 4 4 5 5 6 6 6 5 5
16 16 18 19 18 20 23 16 14 13 13 11 11 10 10 15 14 13 13 13 13 10 12 12 12 12 11 11 9 2 3 7 5 6 5 4 4 5 6 5 5 5 6
10 11 7 5 9 21 21 19 16 15 12 10 10 14 14 13 15 15 14 14 13 10 12 13 14 14 11 11 10 6 5 2 4 5 8 7 5 4 4 5 6 5 5
7 9 9 7 7 12 14 15 17 16 15 11 12 12 11 10 11 15 15 14 13 12 13 13 14 15 12 11 10 9 7 5 6 3 3 9 9 7 5 5 6 6 5
Wind_Direction
177 164 167 156 167 152 149 153 147 147 146 149 143 139 136 134 130 127 123 119 118 118 120 123 123 121 111 102 98 93 89 84 83 79 75 75 74 74 68 52 68 71 70
169 164 161 163 170 157 155 149 148 148 150 150 146 144 142 137 134 132 128 126 124 125 127 127 122 117 116 106 101 103 103 98 92 88 94 84 73 75 70 66 57 67 70
171 166 167 167 173 155 147 152 149 152 151 150 150 148 146 143 140 136 132 131 128 128 128 126 120 125 113 107 105 107 105 97 92 95 193 91 88 83 77 76 67 70 68
175 168 176 178 165 153 141 155 154 152 153 153 151 151 148 146 143 138 134 132 130 130 130 120 126 128 120 118 110 109 104 99 98 207 100 88 88 84 89 86 83 72 74
171 177 168 177 159 150 144 158 157 156 156 156 153 151 148 147 145 137 133 133 133 134 124 128 129 125 118 109 111 105 104 101 114 102 92 95 92 85 81 87 89 82 67
171 178 152 165 156 141 145 162 161 161 161 157 155 151 150 148 143 137 132 133 138 134 135 128 125 127 117 119 114 112 111 121 154 101 100 86 85 93 91 90 87 78 73
175 176 166 162 151 143 148 163 167 165 160 158 156 154 154 151 141 137 136 140 143 137 136 126 122 114 114 118 115 112 109 89 109 101 96 90 97 98 93 90 91 88 85
178 176 160 159 148 144 146 164 173 161 160 162 162 154 150 141 146 141 142 143 143 142 137 127 124 123 122 120 117 113 103 130 107 99 98 84 87 99 98 88 86 90 95
180 180 165 160 147 143 150 165 163 160 163 164 163 152 145 143 146 145 146 147 146 143 131 127 123 121 118 115 112 101 88 17 105 104 118 102 93 96 95 104 97 82 105
181 183 170 163 156 153 158 161 154 160 162 166 153 134 127 136 144 144 144 148 144 134 128 125 121 119 116 112 106 102 123 208 102 101 88 103 98 99 97 94 99 90 86
195 190 173 163 161 157 163 157 153 155 161 161 131 125 139 159 161 155 125 143 138 130 128 124 120 117 110 100 94 94 219 82 72 64 74 98 102 110 108 104 95 104 90
201 197 184 168 165 157 163 155 163 161 168 165 160 165 177 161 158 149 137 144 134 130 127 126 120 131 156 129 121 168 112 105 85 133 105 102 107 112 109 103 99 98 95
196 193 199 180 169 156 158 151 157 149 148 166 183 177 174 166 156 156 147 153 142 152 134 131 144 144 130 129 133 127 117 99 75 76 64 116 121 121 120 108 99 99 97
181 178 200 191 173 160 148 160 163 175 172 186 182 184 176 174 175 162 161 159 153 159 144 149 146 139 134 137 133 130 120 100 75 72 70 29 112 122 113 107 106 92 87
192 158 184 185 180 174 154 163 169 193 191 183 180 186 186 181 180 170 161 164 159 158 152 148 144 138 135 128 130 122 124 107 93 76 74 32 104 116 115 116 101 94 91
200 188 147 167 188 183 176 177 177 181 194 185 182 181 191 184 179 180 169 163 153 160 149 147 144 141 133 130 129 127 119 108 98 76 66 61 41 116 121 110 102 99 93
203 189 170 148 143 158 237 193 184 177 181 193 182 179 184 189 182 175 171 166 154 153 145 139 136 140 132 128 126 123 120 120 108 85 59 57 47 43 113 106 104 104 107
208 194 183 172 168 167 175 237 200 187 177 190 184 179 181 185 182 179 170 167 161 154 152 150 151 148 142 139 128 115 111 103 105 99 72 54 46 46 91 104 110 111 110
214 210 200 199 200 196 178 190 219 194 186 181 186 183 183 181 181 181 174 160 161 163 162 154 150 149 143 133 125 112 103 98 96 100 98 60 50 51 83 86 85 99 108
212 218 213 207 212 209 195 196 195 184 191 180 184 188 179 182 180 181 176 168 166 164 166 163 156 151 154 137 125 108 96 94 92 81 96 88 62 44 42 113 114 90 100
210 211 212 204 211 207 191 181 180 181 188 188 181 186 184 180 183 184 179 172 174 172 175 168 157 149 148 142 127 112 94 87 91 106 116 121 111 93 54 111 123 122 89
209 209 216 210 202 194 194 186 198 190 180 184 180 175 182 182 183 185 177 179 181 177 172 169 164 157 153 172 156 138 147 135 110 103 124 131 120 107 100 121 137 129 124
213 209 206 202 215 193 187 181 199 190 159 171 182 178 184 185 183 189 186 183 183 179 172 176 172 171 164 185 188 145 163 172 144 153 153 147 156 145 131 127 125 122 123
216 215 217 227 208 196 181 178 173 178 167 184 185 180 174 186 186 191 187 187 186 186 182 181 180 180 175 184 181 215 333 124 177 161 183 164 180 166 149 148 146 135 136
201 197 189 193 209 183 171 171 173 186 189 170 170 171 182 186 190 191 191 190 191 192 190 186 189 193 192 184 192 166 161 157 161 156 162 169 176 186 175 168 162 155 139
190 163 159 151 133 155 162 174 187 186 178 168 169 179 185 181 187 193 195 193 192 191 192 195 197 200 198 197 197 193 179 170 179 158 142 171 179 180 181 181 182 168 159